Tracking 29892 objects as of 21-Nov-2024
HD Live streaming from Space Station
objects crossing your sky now

SL-12 DEB

Track SL-12 DEB now!
10-day predictions


NORAD ID: 44982
Int'l Code: 2006-062S
Perigee: 743.9 km
Apogee: 18,553.7 km
Inclination: 64.9 °
Period: 336.3 minutes
Semi major axis: 16019 km
RCS: Unknown
Launch date: December 25, 2006
Source: Commonwealth of Independent States (former USSR) (CIS)
Launch site: TYURATAM MISSILE AND SPACE COMPLEX (TTMTR)

Note: This is SATELLITE DEBRIS
Your satellite tracking list
Your tracking list is empty




NASA's NSSDC Master Catalog

Two Line Element Set (TLE):
1 44982U 06062S   24322.27097363  .00000227  00000-0  19628-2 0  9990
2 44982  64.9230 205.1612 5558695 294.8475  18.3164  4.28171003 78859
Source of the keplerian elements: AFSPC